Location: Aalen
(48.8330°N, 10.1000°E)
Time: 20:12:19
(UTC+02:00)

S-56A Canister/Altair - Pass Details

Date: 09 August 2021
Orbit: 632 x 2500 km, 38.9° (Epoch: 19 September)

Event Time Altitude Azimuth Distance (km) Brightness Sun altitude
Rises 12:45:11 0° 210° (SSW) 4,446 11.8 55.9°
Reaches altitude 10° 12:48:16 10° 199° (SSW) 3,731 11.6 56.0°
Maximum altitude 12:56:41 31° 143° (SE) 3,015 11.8 56.4°
Drops below altitude 10° 13:07:39 10° 89° (E) 4,938 11.8 56.7°
Sets 13:12:28 0° 81° (E) 6,095 12.1 56.8°
